Powrót do katalogu

STARLINK-32715

AktywnyŁącznośćVLEO
NORAD 62569·PAYLOAD·🇺🇸 United States

Wystrzelony Jan 10, 2025 z Cape Canaveral Space Force Station

Loading…

Następne Przeloty (najbliższe 24 godziny)

TLE

ŚwieżeSource: CelesTrak SupGP

Epoka: Sep 15, 2026, 03:22 UTC

1 62569C 25006R   26258.14076389  .00026271  00000+0  95161-3 0  2582
2 62569  43.0002 302.9315 0001412 269.3357  87.8160 15.27563011    17

Śledź STARLINK-32715 w czasie rzeczywistym z AllMySat

Download on the App Store